Russellville, AR

5:05 PM CDT on September 30, 2016 (GMT -0500)
Russellville Regional

Weather History for KRUE - April, 2014

Change the Weather History Date:

Saturday, April 26, 2014

  Actual Average (KHOT) Record (KHOT)
Temperature  
Mean Temperature 65 °F -  
Max Temperature 84 °F 76 °F 90 °F (1984)
Min Temperature 46 °F 51 °F 34 °F (1976)
Growing Degree Days 15 (Base 50)    
Moisture  
Dew Point 51 °F    
Average Humidity 60    
Maximum Humidity 93    
Minimum Humidity 34    
Precipitation  
Precipitation 0.00 in - - ()
Sea Level Pressure  
Sea Level Pressure 29.84 in    
Wind  
Wind Speed 2 mph (SSE)    
Max Wind Speed 9 mph    
Max Gust Speed -    
Visibility 10 miles    
Events      
Averages and records for this station are not official NWS values.
T = Trace of Precipitation, MM = Missing Value Source: NWS Daily Summary

Daily Weather History Graph

Daily Weather History Graph

Search for Another Location

Airport or City:

Trip Planner

Search our weather history database for the weather conditions in past years. The results will help you decide how hot, cold, wet, or windy it might be!

Date:

Astronomy

Apr. 26, 2014 Rise Set
Actual Time 6:26 AM CDT 7:54 PM CDT
Civil Twilight 5:59 AM CDT 8:21 PM CDT
Nautical Twilight 5:27 AM CDT 8:53 PM CDT
Astronomical Twilight 4:54 AM CDT 9:27 PM CDT
Moon 4:44 AM CDT (4/26) 5:28 PM CDT (4/26)
Length of Visible Light 14h 21m
Length of Day
13h 27m
Waning Crescent, 8% of the Moon is Illuminated
Apr 26
Waning Crescent
Apr 29
New
May 6
First Quarter
May 14
Full
May 21
Last Quarter

Hourly Weather History & Observations

Time (CDT) Temp. Heat Index Dew Point Humidity Pressure Visibility Wind Dir Wind Speed Gust Speed Precip Events Conditions
12:53 AM 52.0 °F - 46.9 °F 83% 29.93 in 10.0 mi Calm Calm - N/A   Clear
1:53 AM 50.0 °F - 46.0 °F 86% 29.91 in 10.0 mi Calm Calm - N/A   Clear
2:53 AM 48.9 °F - 45.0 °F 86% 29.89 in 10.0 mi Calm Calm - N/A   Clear
3:53 AM 48.9 °F - 45.0 °F 86% 29.88 in 10.0 mi Calm Calm - N/A   Clear
4:53 AM 48.0 °F - 45.0 °F 89% 29.89 in 10.0 mi Calm Calm - N/A   Clear
5:53 AM 46.9 °F - 45.0 °F 93% 29.89 in 10.0 mi Calm Calm - N/A   Clear
6:53 AM 48.9 °F - 46.0 °F 90% 29.91 in 10.0 mi Calm Calm - N/A   Clear
7:53 AM 55.0 °F - 48.9 °F 80% 29.92 in 10.0 mi Calm Calm - N/A   Clear
8:53 AM 63.0 °F - 50.0 °F 63% 29.92 in 10.0 mi Calm Calm - N/A   Clear
9:53 AM 64.9 °F - 52.0 °F 63% 29.93 in 10.0 mi Calm Calm - N/A   Clear
10:53 AM 71.1 °F - 50.0 °F 47% 29.93 in 10.0 mi Variable 3.5 mph - N/A   Clear
11:53 AM 75.9 °F - 48.9 °F 38% 29.90 in 10.0 mi Variable 4.6 mph - N/A   Clear
12:53 PM 79.0 °F - 51.1 °F 38% 29.87 in 10.0 mi Variable 5.8 mph - N/A   Clear
1:53 PM 80.1 °F - 52.0 °F 38% 29.84 in 10.0 mi South 4.6 mph - N/A   Clear
2:53 PM 82.9 °F 81.9 °F 54.0 °F 37% 29.82 in 10.0 mi Variable 6.9 mph - N/A   Clear
3:53 PM 84.0 °F 82.6 °F 54.0 °F 35% 29.79 in 10.0 mi SE 9.2 mph - N/A   Clear
4:53 PM 84.9 °F 83.3 °F 54.0 °F 34% 29.76 in 10.0 mi Variable 6.9 mph - N/A   Clear
5:53 PM 84.0 °F 82.9 °F 55.0 °F 37% 29.74 in 10.0 mi Variable 4.6 mph - N/A   Clear
6:53 PM 82.0 °F 81.4 °F 55.0 °F 39% 29.73 in 10.0 mi Variable 4.6 mph - N/A   Clear
7:53 PM 78.1 °F - 54.0 °F 43% 29.73 in 10.0 mi Variable 3.5 mph - N/A   Clear
8:53 PM 75.0 °F - 55.9 °F 51% 29.74 in 10.0 mi Calm Calm - N/A   Clear
9:53 PM 73.9 °F - 57.0 °F 55% 29.74 in 10.0 mi Variable 3.5 mph - N/A   Partly Cloudy
10:53 PM 73.0 °F - 57.9 °F 59% 29.73 in 10.0 mi Variable 4.6 mph - N/A   Clear
11:53 PM 73.0 °F - 59.0 °F 61% 29.71 in 10.0 mi Variable 4.6 mph - N/A   Scattered Clouds